Location: Banff
(51.1667°N, 115.5667°W)
Time: 07:24:49
(UTC+00:00)

S-56A Canister/Altair - Pass Details

Date: 01 December 2020
Orbit: 633 x 2499 km, 38.9° (Epoch: 21 January)

Event Time Altitude Azimuth Distance (km) Brightness Sun altitude
Rises 00:28:53 0° 194° (SSW) 5,990 12.7 -7.7°
Reaches altitude 10° 00:35:12 10° 176° (S) 4,723 11.8 -8.6°
Maximum altitude 00:41:45 16° 145° (SE) 3,881 11.0 -9.5°
Drops below altitude 10° 00:47:21 10° 113° (ESE) 3,944 10.7 -10.3°
Enters shadow 00:49:48 - 101° (E) 4,237 10.8 -10.7°
Sets 00:51:46 0° 93° (E) 4,567 - -10.9°
